Location: Cartersville (historical)
(42.9944°N, 93.0869°W)
Time: 09:46:19
(UTC+00:00)

ARIANE 6 FM1 Upper Stage - Visible Passes

Search period start: 11 October 2024 00:00
Search period end: 21 October 2024 00:00
Orbit: 563 x 594 km, 62.0° (Epoch: 10 October)

Date Brightness Start Highest point End Pass type
(mag) Time Alt. Az. Time Alt. Az. Time Alt. Az.
11 Oct 5.5 02:17:27 10° N 02:17:43 11° N 02:17:43 11° N visible
12 Oct 5.5 02:21:20 10° NNW 02:21:51 12° N 02:21:51 12° N visible
13 Oct 5.5 02:25:19 10° NNW 02:25:58 13° NNW 02:25:58 13° NNW visible
14 Oct 5.4 02:29:21 10° NNW 02:30:04 14° NNW 02:30:04 14° NNW visible
15 Oct 4.9 00:55:34 10° N 00:57:27 12° NNE 00:57:55 12° NE visible
15 Oct 5.5 02:33:24 10° NNW 02:34:11 15° NNW 02:34:11 15° NNW visible
16 Oct 4.6 00:59:10 10° N 01:01:56 16° NNE 01:02:02 16° NE visible
16 Oct 5.5 02:37:30 10° NW 02:38:19 15° NW 02:38:19 15° NW visible
17 Oct 4.3 01:02:56 10° NNW 01:06:11 22° NE 01:06:11 22° NE visible
17 Oct 5.6 02:41:40 10° NW 02:42:28 15° NW 02:42:28 15° NW visible
18 Oct 3.8 01:06:45 10° NNW 01:10:22 29° NE 01:10:22 29° NE visible
18 Oct 5.7 02:45:56 10° NW 02:46:39 14° WNW 02:46:39 14° WNW visible
19 Oct 3.3 01:10:37 10° NNW 01:14:36 42° NE 01:14:36 42° NE visible
19 Oct 5.9 02:50:21 10° WNW 02:50:52 12° WNW 02:50:52 12° WNW visible
20 Oct 2.7 01:14:31 10° NNW 01:18:52 65° NE 01:18:54 65° NE visible
20 Oct 6.0 02:55:09 10° WNW 02:55:11 10° WNW 02:55:11 10° WNW visible
